CZ-6A DEB, 61810

Orbit data source: Space-Track

CZ-6A DEB, 61810 is space debris in LEO originally from a launch on Tue, 06 Aug 2024 UTC launched from the Taiyaun Space Center, China (TSC). Debris objects in space refer to the collection of defunct objects orbiting the Earth. Examples of debris include non-operational satellites, rocket bodies, and fragments generated from explosions, collisions, or faulty payload assembly.

Loading next visibility...
Identifier
61810, 2024-140ACA
Orbit
LEO
Country
Flag of CNCN / PRC
Related business
Manufacturer
SAST
Mission
Spacecraft
Bus & Motor
Unknown
Mass
Unknown
Launch date (UTC)
2024-08-06 (2 years ago)
Launch vehicle
Unknown
Launch site
Taiyaun Space Center, China (TSC)
Object type
Payload
Rocket body
Debris
Shape & HBR
Unknown shape, 0.1 m
Radar Cross Section
Medium (>0.1 m² and <1 m²)

Expand to show TLE details & history
Last TLE update: 6 days ago

TLE from 6 days ago
0 CZ-6A DEB
1 61810U 24140ACA 26166.02663495  .00005798  00000-0  20058-2 0  9999
2 61810  88.9913 274.1158 0190926 105.7609 256.4731 14.25860209 92319
Epoch: 2026-06-15T00:38Z
TLE epoch observation values (Epoch: 2026-06-15T00:38:21.259Z)
Latitude
-0.00002°
Longitude
1.20829°
Altitude
843.213 km
Speed
7.413 km/s
True Right ascension
18h 16m 27s
True Declination
0° 00' 00"
Sunlit
Object was in full shadow at epoch
Visualization orbit readout
Latitude
Unknown
Longitude
Unknown
Altitude
Unknown
Speed
Unknown
Apparent Right ascension
Unknown
Apparent Declination
Unknown
Sunlit
N/A
Visualization observer readout
Local Sidereal Time
07:21:32
Azimuth
Unknown
Elevation
Unknown
Doppler factor
Unknown
Orbital elements
Apogee altitude
939.641 km
Perigee altitude
665.445 km
Semi-major axis
7,180.68 km
Eccentricity
0.01909
Inclination
88.9913°
RAAN
274.1158°
Arg. of periapsis
105.7609°
True anomaly
254.35823°
Mean anomaly
256.4731°
Eccentric anomaly
255.41443°
Mean motion
3.56693 °/min
Orbital period
100.93 mins
BSTAR
0.0020058
Loading maneuver chart data...
Computing Atmospheric mass density...
Loading historical data...
Loading historical data...
Loading historical data...
Loading historical data...
Loading historical data...
Loading historical data...
Loading historical data...

Documentation

Showing up to 5 results
|